Location: Unspecified
(0.0000°N, 0.0000°E)
Time: 13:30:39
(UTC+00:00)

Hubble Space Telescope - Pass Details

Date: 03 April 2020
Orbit: 536 x 540 km, 28.5° (Epoch: 01 April)

Event Time Altitude Azimuth Distance (km) Brightness Sun altitude
Exits shadow 04:38:07 19° 344° (NNW) 1,316 2.6 -21.2°
Maximum altitude 04:40:13 29° 30° (NNE) 999 2.4 -20.7°
Drops below altitude 10° 04:43:50 10° 91° (E) 1,784 4.6 -19.8°
Sets 04:46:18 0° 102° (ESE) 2,676 5.7 -19.1°
